Tracking 19709 objects as of 19-Jun-2019
HD Live streaming from Space Station
objects crossing your sky now

SL-8 R/B

Track SL-8 R/B now!
10-day predictions


NORAD ID: 8646
Int'l Code: 1976-011B
Perigee: 987.7 km
Apogee: 998.0 km
Inclination: 83.0 °
Period: 104.8 minutes
Semi major axis: 7363 km
RCS: 4.2529 m2 (large)
Launch date: February 3, 1976
Source: Commonwealth of Independent States (former USSR) (CIS)
Launch site: PLESETSK MISSILE AND SPACE COMPLEX (PKMTR)

Note: This is a ROCKET BODY
aabbcc
Your satellite tracking list
Your tracking list is empty




NASA's NSSDC Master Catalog

Two Line Element Set (TLE):
1  8646U 76011B   19170.07339528  .00000106  00000-0  96529-4 0  9996
2  8646  82.9683 153.1281 0006956  64.1326   1.8039 13.73870771174075
Source of the keplerian elements: AFSPC